[[{"header":{"parameterUnit":"m.s-1","parameterCategory":1,"la1":30.2992,"la2":30.254,"lo1":-89.0895,"lo2":-89.0443,"dy":0.0025,"dx":0.0025,"nx":19,"ny":19,"refTime":"2026-04-13T09:00:00:Z","depth":0,"parameterNumber":2,"parameterNumberName":"U-component_of_WINDS"},"data":[0,0,0,-3.3464,-3.3466,-3.356,-3.356,-3.3686,-3.3687,0,0,0,0,0,0,0,0,0,0,0,-3.3441,-3.3442,-3.3464,-3.3466,-3.356,-3.356,-3.3686,-3.3687,0,0,0,0,0,0,0,0,0,0,0,-3.3441,-3.3442,-3.3443,-3.3467,-3.356,-3.356,-3.3685,-3.3612,0,0,0,0,0,0,0,0,0,0,-3.352,-3.3505,-3.3442,-3.3443,-3.3467,-3.356,-3.356,-3.3609,-3.3617,-3.3647,0,-3.3676,0,-3.3684,-3.3696,-3.3697,0,0,0,-3.3462,-3.3498,-3.3519,-3.3444,-3.3468,-3.3559,-3.3516,-3.3613,-3.3622,-3.3657,-3.3677,-3.3682,-3.3686,-3.3697,-3.3698,-3.3885,-3.3886,0,0,-3.3457,-3.3461,-3.3512,-3.3525,-3.3512,-3.3513,-3.3519,-3.3619,-3.364,-3.3678,-3.3685,-3.3688,-3.3698,-3.3699,-3.3884,-3.3885,0,0,0,-3.3445,-3.3457,-3.3475,-3.352,-3.3536,-3.3516,-3.3523,-3.3636,-3.3641,-3.3686,-3.3689,-3.3699,-3.37,-3.3883,-3.3885,-3.394,0,0,0,-3.3441,-3.345,-3.3473,-3.3477,-3.3535,-3.3588,-3.3538,-3.3634,-3.3645,-3.3689,-3.3699,-3.3702,-3.3882,-3.3884,-3.3936,-3.3965,0,0,0,-3.3433,-3.3449,-3.3465,-3.3477,-3.3517,-3.3586,-3.3597,-3.3637,-3.3648,-3.3697,-3.3702,-3.3881,-3.3883,-3.3933,-3.396,-3.4014,0,0,0,-3.3425,-3.3514,-3.3466,-3.3565,-3.3516,-3.3621,-3.3596,-3.3674,-3.3723,-3.3699,-3.3882,-3.3884,-3.3931,-3.3956,-3.4011,-3.406,-3.4082,0,0,-3.3539,-3.3527,-3.3586,-3.3545,-3.3659,-3.3606,-3.3727,-3.3768,-3.3769,-3.3846,-3.385,-3.3938,-3.3959,-3.4014,-3.4205,-3.4222,0,0,0,-3.3623,-3.3664,-3.3693,-3.374,-3.3774,-3.3804,-3.3826,-3.3841,-3.3906,-3.381,-3.3973,-3.3986,-3.4018,-3.4041,-3.4056,-3.4082,-3.3896,-3.3896,-3.3895,-3.3787,-3.3784,-3.3879,-3.3887,-3.3932,-3.3954,-3.399,-3.4013,-3.3997,-3.4035,-3.4057,-3.4174,-3.4201,-3.4212,-3.424,-3.4085,-3.4085,-3.4085,-3.4085,-3.3951,-3.4009,-3.3984,-3.4067,-3.4063,-3.4132,-3.4156,-3.4141,-3.4204,-3.4157,-3.4185,-3.4132,-3.4231,-3.4255,-3.409,-3.4089,-3.4088,-3.4088,-3.4088,-3.4057,-3.4084,-3.4101,-3.4167,-3.4218,-3.4223,-3.4284,-3.4278,-3.4273,-3.43,-3.4322,-3.4321,-3.4317,-3.4311,-3.4312,-3.4312,-3.4312,-3.4313,-3.4313,-3.416,-3.4177,-3.423,-3.4273,-3.4301,-3.4337,-3.4359,-3.4386,-3.4415,-3.4405,-3.4405,-3.4383,-3.4243,-3.4206,-3.4319,-3.4318,-3.4317,-3.4317,-3.4316,-3.4324,-3.4286,-3.4368,-3.4396,-3.4444,-3.4494,-3.4486,-3.4542,-3.4563,-3.4593,-3.4566,-3.4463,-3.4451,-3.4439,-3.4409,-3.4567,-3.4567,-3.4568,-3.4568,-3.4412,-3.4406,-3.4487,-3.4532,-3.4576,-3.4576,-3.4666,-3.4684,-3.4695,-3.4708,-3.4684,-3.4644,-3.4633,-3.4627,-3.4611,-3.4582,-3.4782,-3.4782,-3.4782,-3.4512,-3.451,-3.4588,-3.4599,-3.4636,-3.4667,-3.4751,-3.4803,-3.4808,-3.4791,-3.4717,-3.4708,-3.4643,-3.4623,-3.4602,-3.4578,-3.4525,0,0]},{"header":{"parameterUnit":"m.s-1","parameterCategory":1,"la1":30.2992,"la2":30.254,"lo1":-89.0895,"lo2":-89.0443,"dy":0.0025,"dx":0.0025,"nx":19,"ny":19,"refTime":"2026-04-13T09:00:00:Z","depth":0,"parameterNumber":3,"parameterNumberName":"V-component_of_WINDS"},"data":[0,0,0,4.1285,4.1288,4.1412,4.1413,4.1575,4.1576,0,0,0,0,0,0,0,0,0,0,0,4.1252,4.1254,4.1285,4.1288,4.1412,4.1413,4.1574,4.1576,0,0,0,0,0,0,0,0,0,0,0,4.1252,4.1253,4.1255,4.1289,4.1412,4.1413,4.1574,4.1478,0,0,0,0,0,0,0,0,0,0,4.1357,4.1331,4.1253,4.1255,4.1289,4.1412,4.1413,4.1474,4.1484,4.152,0,4.1555,0,4.1568,4.1587,4.1588,0,0,0,4.1284,4.1323,4.1353,4.1255,4.1291,4.1412,4.1355,4.148,4.1492,4.1534,4.1557,4.1563,4.1571,4.1588,4.1589,4.1813,4.1814,0,0,4.1277,4.1276,4.1345,4.1361,4.1344,4.1351,4.1359,4.1487,4.1511,4.1558,4.1567,4.1574,4.1589,4.1591,4.1812,4.1813,0,0,0,4.126,4.1272,4.1298,4.1354,4.1377,4.1355,4.1364,4.1505,4.1514,4.1569,4.1576,4.159,4.1592,4.181,4.1812,4.1871,0,0,0,4.1256,4.1262,4.1296,4.1296,4.1374,4.1443,4.138,4.1505,4.152,4.1575,4.159,4.1594,4.1809,4.1811,4.1867,4.1899,0,0,0,4.1243,4.126,4.128,4.1296,4.135,4.1441,4.1457,4.1509,4.1525,4.1588,4.1595,4.1808,4.1811,4.1863,4.1892,4.1957,0,0,0,4.1227,4.133,4.1281,4.1397,4.1349,4.1478,4.1456,4.1552,4.1614,4.1591,4.1809,4.1812,4.1862,4.1888,4.1953,4.201,4.2035,0,0,4.1355,4.1345,4.1414,4.1373,4.1511,4.1459,4.1605,4.1661,4.1667,4.1763,4.1769,4.1868,4.1892,4.1956,4.2174,4.2193,0,0,0,4.1454,4.1503,4.154,4.16,4.1647,4.1689,4.1724,4.1745,4.1827,4.1718,4.191,4.1924,4.1962,4.1989,4.2005,4.2037,4.1825,4.1825,4.1825,4.1631,4.1636,4.1749,4.1769,4.1827,4.1862,4.1909,4.1943,4.1929,4.1974,4.2002,4.2134,4.2167,4.2179,4.2212,4.2034,4.2035,4.2035,4.2035,4.1818,4.1887,4.1869,4.1972,4.1975,4.2061,4.2099,4.2086,4.2165,4.2114,4.2147,4.2088,4.22,4.2229,4.2039,4.2039,4.2038,4.2038,4.2037,4.1933,4.1967,4.1993,4.208,4.2146,4.2162,4.2239,4.2239,4.224,4.2273,4.2302,4.2301,4.2298,4.2287,4.2287,4.2288,4.2288,4.2289,4.2289,4.2042,4.2069,4.2136,4.2196,4.2234,4.2284,4.2322,4.2359,4.2399,4.2393,4.2393,4.2374,4.2211,4.217,4.2296,4.2295,4.2294,4.2293,4.2293,4.2227,4.2186,4.2288,4.2327,4.2397,4.2462,4.2462,4.2538,4.2568,4.2606,4.2581,4.2461,4.2449,4.2436,4.2402,4.258,4.258,4.258,4.258,4.2324,4.2319,4.2424,4.2486,4.2546,4.2557,4.2671,4.27,4.2724,4.2743,4.2718,4.2672,4.2659,4.2655,4.2637,4.2605,4.2831,4.2831,4.2832,4.2437,4.2438,4.2536,4.2561,4.2616,4.2662,4.2769,4.2839,4.2857,4.2842,4.2757,4.2747,4.2674,4.265,4.2631,4.2603,4.2544,0,0]}]]